| time (UTC) | temp F | wind direction | speed knots | gust knots | rain 1hr in | rain 24hr in | rain mn in | humidity % | barometer mb |
| 20260505031543 | 63 | 170 | 0.0 | 0.0 | 0.00 | 0.00 | 0.00 | 51 | 1015.3 |
| 20260505030033 | 64 | 170 | 0.0 | 0.0 | 0.00 | 0.00 | 0.00 | 50 | 1015.3 |
| 20260505024539 | 65 | 170 | 0.0 | 0.0 | 0.00 | 0.00 | 0.00 | 47 | 1015.2 |
| 20260505023034 | 66 | 170 | 0.0 | 0.0 | 0.00 | 0.00 | 0.00 | 45 | 1015.1 |
| 20260505021532 | 66 | 188 | 0.0 | 0.0 | 0.00 | 0.00 | 0.00 | 44 | 1015.0 |
| 20260505020034 | 66 | 210 | 0.9 | 0.0 | 0.00 | 0.00 | 0.00 | 44 | 1014.9 |
| 20260505014536 | 65 | 148 | 0.0 | 0.0 | 0.00 | 0.00 | 0.00 | 45 | 1014.7 |
| 20260505013031 | 66 | 218 | 0.0 | 0.0 | 0.00 | 0.00 | 0.00 | 45 | 1014.5 |
| 20260505011534 | 68 | 218 | 0.0 | 0.0 | 0.00 | 0.00 | 0.00 | 43 | 1014.4 |
| 20260505010030 | 70 | 218 | 0.0 | 0.0 | 0.00 | 0.00 | 0.00 | 38 | 1014.2 |
| 20260505004543 | 71 | 152 | 0.0 | 0.0 | 0.00 | 0.00 | 0.00 | 36 | 1014.0 |
| 20260505003031 | 72 | 165 | 0.9 | 0.0 | 0.00 | 0.00 | 0.00 | 36 | 1014.0 |
| 20260505001528 | 73 | 165 | 0.9 | 0.0 | 0.00 | 0.00 | 0.00 | 35 | 1013.9 |
| 20260505000041 | 74 | 173 | 2.6 | 0.0 | 0.00 | 0.00 | 0.00 | 35 | 1013.9 |
| 20260504234528 | 75 | 196 | 4.3 | 0.0 | 0.00 | 0.00 | 0.00 | 34 | 1013.6 |
| 20260504233027 | 76 | 200 | 3.5 | 0.0 | 0.00 | 0.00 | 0.00 | 33 | 1013.4 |
| 20260504231530 | 77 | 197 | 2.6 | 0.0 | 0.00 | 0.00 | 0.00 | 29 | 1013.2 |
| 20260504230026 | 77 | 165 | 4.3 | 0.0 | 0.00 | 0.00 | 0.00 | 30 | 1013.1 |
| 20260504224525 | 78 | 171 | 4.3 | 0.0 | 0.00 | 0.00 | 0.00 | 30 | 1013.3 |
| 20260504223025 | 78 | 194 | 3.5 | 0.0 | 0.00 | 0.00 | 0.00 | 29 | 1013.3 |
| 20260504221523 | 79 | 188 | 2.6 | 0.0 | 0.00 | 0.00 | 0.00 | 28 | 1013.3 |
| 20260504220023 | 79 | 199 | 3.5 | 0.0 | 0.00 | 0.00 | 0.00 | 27 | 1013.4 |
| 20260504214524 | 79 | 169 | 3.5 | 0.0 | 0.00 | 0.00 | 0.00 | 27 | 1013.3 |
| 20260504213022 | 79 | 159 | 3.5 | 0.0 | 0.00 | 0.00 | 0.00 | 25 | 1013.3 |
| 20260504211520 | 79 | 211 | 4.3 | 0.0 | 0.00 | 0.00 | 0.00 | 26 | 1013.4 |
| 20260504210023 | 79 | 138 | 3.5 | 0.0 | 0.00 | 0.00 | 0.00 | 28 | 1013.5 |
| 20260504204517 | 79 | 201 | 3.5 | 0.0 | 0.00 | 0.00 | 0.00 | 27 | 1013.6 |
| 20260504203016 | 79 | 193 | 3.5 | 0.0 | 0.00 | 0.00 | 0.00 | 27 | 1013.9 |
| 20260504201515 | 79 | 221 | 3.5 | 0.0 | 0.00 | 0.00 | 0.00 | 27 | 1014.1 |
| 20260504200014 | 79 | 265 | 2.6 | 0.0 | 0.00 | 0.00 | 0.00 | 27 | 1014.1 |
| 20260504194511 | 78 | 216 | 3.5 | 0.0 | 0.00 | 0.00 | 0.00 | 29 | 1014.2 |
| 20260504193012 | 79 | 128 | 1.7 | 0.0 | 0.00 | 0.00 | 0.00 | 27 | 1014.4 |
| 20260504191508 | 78 | 112 | 2.6 | 0.0 | 0.00 | 0.00 | 0.00 | 26 | 1014.6 |
| 20260504190006 | 77 | 223 | 3.5 | 0.0 | 0.00 | 0.00 | 0.00 | 26 | 1014.9 |
| 20260504184503 | 76 | 205 | 4.3 | 0.0 | 0.00 | 0.00 | 0.00 | 31 | 1015.0 |
| 20260504183001 | 77 | 207 | 2.6 | 0.0 | 0.00 | 0.00 | 0.00 | 29 | 1015.2 |
| 20260504181602 | 77 | 143 | 2.6 | 0.0 | 0.00 | 0.00 | 0.00 | 30 | 1015.4 |
| 20260504180114 | 77 | 355 | 1.7 | 0.0 | 0.00 | 0.00 | 0.00 | 29 | 1015.6 |
| 20260504174555 | 76 | 229 | 1.7 | 0.0 | 0.00 | 0.00 | 0.00 | 32 | 1015.7 |
| 20260504173052 | 75 | 258 | 1.7 | 0.0 | 0.00 | 0.00 | 0.00 | 32 | 1015.8 |
| 20260504171550 | 74 | 214 | 2.6 | 0.0 | 0.00 | 0.00 | 0.00 | 33 | 1015.8 |
| 20260504081512 | 44 | 153 | 0.0 | 0.0 | 0.00 | 0.00 | 0.00 | 95 | 1016.8 |
| 20260504044552 | 47 | 153 | 0.0 | 0.0 | 0.00 | 0.00 | 0.00 | 89 | 1017.4 |
| 20260504043051 | 47 | 153 | 0.0 | 0.0 | 0.00 | 0.00 | 0.00 | 88 | 1017.5 |
| 20260504041545 | 48 | 153 | 0.0 | 0.0 | 0.00 | 0.00 | 0.00 | 87 | 1017.6 |
| 20260504040048 | 49 | 153 | 0.0 | 0.0 | 0.00 | 0.00 | 0.00 | 85 | 1017.6 |
| 20260504034543 | 49 | 153 | 0.0 | 0.0 | 0.00 | 0.00 | 0.00 | 84 | 1017.6 |
| 20260504033041 | 50 | 153 | 0.0 | 0.0 | 0.00 | 0.00 | 0.00 | 82 | 1017.7 |